STARLINK-33764, 63510

Orbit data source: Space-Track

STARLINK-33764, 63510 is a payload satellite owned by SpaceX/Seattle (US) in LEO that was launched on Mon, 07 Apr 2025 UTC via an FALCON 9 launch vehicle from the Air Force Western Test Range (AFWTR). Payload-class satellites include a variety of spacecraft equipped with specific instruments for various scientific and technological missions. These include communications satellites like Starlink; space stations such as the ISS; scientific satellites like the Hubble; Earth observation satellites from companies like Planet Labs, Umbra, and HawkEye 360; GPS; miniature CubeSats for education and research; and military/defense satellites.

Loading next visibility...
Identifier
63510, 2025-071T
Orbit
LEO
Country
Flag of USUS
Related business
Manufacturer
SpaceX/Seattle
Mission
Operational Commercial Communications
Bus & Motor
STARLINK V2MO, Unknown motor
Mass
575 kg wet, ~530 kg dry
Launch date (UTC)
2025-04-07 (7 months ago)
Launch vehicle
FALCON 9
Launch site
Air Force Western Test Range (AFWTR)
Object type
Payload
Rocket body
Debris
Shape & HBR
Box + 2 Pan, 17.7 m
Radar Cross Section
36.964 m², Large (>1 m²)

Expand to show TLE details & history
Last TLE update: 1 day ago

TLE from 1 day ago
0 STARLINK-33764
1 63510U 25071T   25306.44987711  .00024062  00000-0  82154-3 0  9994
2 63510  53.1614  11.2767 0001526 100.0117 260.1056 15.30213812 33265
Epoch: 2025-11-02T10:47Z
TLE epoch observation values (Epoch: 2025-11-02T10:47:49.382Z)
Latitude
-0.00001°
Longitude
167.35549°
Altitude
476.254 km
Speed
7.629 km/s
True Right ascension
00h 45m 06s
True Declination
0° 00' 00"
Sunlit
Object was in full shadow at epoch
Visualization orbit readout
Latitude
Unknown
Longitude
Unknown
Altitude
Unknown
Speed
Unknown
Apparent Right ascension
Unknown
Apparent Declination
Unknown
Sunlit
N/A
Visualization observer readout
Local Sidereal Time
11:09:22
Azimuth
Unknown
Elevation
Unknown
Doppler factor
Unknown
Orbital elements
Apogee altitude
476.476 km
Perigee altitude
474.384 km
Semi-major axis
6,853.567 km
Eccentricity
0.00015
Inclination
53.1614°
RAAN
11.2767°
Arg. of periapsis
100.0117°
True anomaly
260.08837°
Mean anomaly
260.1056°
Eccentric anomaly
260.09699°
Mean motion
3.82532 °/min
Orbital period
94.11 mins
BSTAR
0.00082154
Loading maneuver chart data...
Computing Atmospheric mass density...
Loading historical data...
Loading historical data...
Loading historical data...
Loading historical data...
Loading historical data...
Loading historical data...
Loading historical data...

Documentation

Showing up to 5 results
|